Year,Month,Day,Hour,Minute,Value (Times are PST for temperature in C)
2019,05,27,00,00,13.20
2019,05,27,00,01,13.20
2019,05,27,00,02,13.20
2019,05,27,00,03,13.20
2019,05,27,00,04,13.20
2019,05,27,00,05,13.10
2019,05,27,00,06,13.10
2019,05,27,00,07,13.10
2019,05,27,00,08,13.10
2019,05,27,00,09,13.10
2019,05,27,00,10,13.10
2019,05,27,00,11,13.00
2019,05,27,00,12,13.00
2019,05,27,00,13,13.00
2019,05,27,00,14,12.90
2019,05,27,00,15,12.90
2019,05,27,00,16,12.90
2019,05,27,00,17,12.90
2019,05,27,00,18,12.80
2019,05,27,00,19,12.80
2019,05,27,00,20,12.80
2019,05,27,00,21,12.80
2019,05,27,00,22,12.80
2019,05,27,00,23,12.70
2019,05,27,00,24,12.70
2019,05,27,00,25,12.70
2019,05,27,00,26,12.70
2019,05,27,00,27,12.70
2019,05,27,00,28,12.70
2019,05,27,00,29,12.70
2019,05,27,00,30,12.70
2019,05,27,00,31,12.60
2019,05,27,00,32,12.60
2019,05,27,00,33,12.60
2019,05,27,00,34,12.60
2019,05,27,00,35,12.60
2019,05,27,00,36,12.60
2019,05,27,00,37,12.60
2019,05,27,00,38,12.60
2019,05,27,00,39,12.50
2019,05,27,00,40,12.50
2019,05,27,00,41,12.50
2019,05,27,00,42,12.50
2019,05,27,00,43,12.50
2019,05,27,00,44,12.50
2019,05,27,00,45,12.50
2019,05,27,00,46,12.50
2019,05,27,00,47,12.50
2019,05,27,00,48,12.50
2019,05,27,00,49,12.50
2019,05,27,00,50,12.50
2019,05,27,00,51,12.40
2019,05,27,00,52,12.50
2019,05,27,00,53,12.50
2019,05,27,00,54,12.50
2019,05,27,00,55,12.50
2019,05,27,00,56,12.50
2019,05,27,00,57,12.50
2019,05,27,00,58,12.50
2019,05,27,00,59,12.50
2019,05,27,01,00,12.60
2019,05,27,01,01,12.60
2019,05,27,01,02,12.60
2019,05,27,01,03,12.60
2019,05,27,01,04,12.60
2019,05,27,01,05,12.60
2019,05,27,01,06,12.60
2019,05,27,01,07,12.60
2019,05,27,01,08,12.60
2019,05,27,01,09,12.60
2019,05,27,01,10,12.60
2019,05,27,01,11,12.60
2019,05,27,01,12,12.60
2019,05,27,01,13,12.60
2019,05,27,01,14,12.60
2019,05,27,01,15,12.60
2019,05,27,01,16,12.60
2019,05,27,01,17,12.60
2019,05,27,01,18,12.60
2019,05,27,01,19,12.60
2019,05,27,01,20,12.60
2019,05,27,01,21,12.60
2019,05,27,01,22,12.60
2019,05,27,01,23,12.60
2019,05,27,01,24,12.60
2019,05,27,01,25,12.60
2019,05,27,01,26,12.60
2019,05,27,01,27,12.60
2019,05,27,01,28,12.60
2019,05,27,01,29,12.60
2019,05,27,01,30,12.60
2019,05,27,01,31,12.50
2019,05,27,01,32,12.50
2019,05,27,01,33,12.50
2019,05,27,01,34,12.50
2019,05,27,01,35,12.40
2019,05,27,01,36,12.40
2019,05,27,01,37,12.40
2019,05,27,01,38,12.40
2019,05,27,01,39,12.40
2019,05,27,01,40,12.30
2019,05,27,01,41,12.30
2019,05,27,01,42,12.30
2019,05,27,01,43,12.30
2019,05,27,01,44,12.30
2019,05,27,01,45,12.30
2019,05,27,01,46,12.20
2019,05,27,01,47,12.20
2019,05,27,01,48,12.20
2019,05,27,01,49,12.20
2019,05,27,01,50,12.20
2019,05,27,01,51,12.20
2019,05,27,01,52,12.10
2019,05,27,01,53,12.10
2019,05,27,01,54,12.10
2019,05,27,01,55,12.10
2019,05,27,01,56,12.10
2019,05,27,01,57,12.10
2019,05,27,01,58,12.00
2019,05,27,01,59,12.00
2019,05,27,02,00,12.00
2019,05,27,02,01,12.00
2019,05,27,02,02,11.90
2019,05,27,02,03,11.90
2019,05,27,02,04,11.90
2019,05,27,02,05,11.90
2019,05,27,02,06,11.90
2019,05,27,02,07,11.80
2019,05,27,02,08,11.80
2019,05,27,02,09,11.80
2019,05,27,02,10,11.80
2019,05,27,02,11,11.80
2019,05,27,02,12,11.90
2019,05,27,02,13,11.90
2019,05,27,02,14,11.90
2019,05,27,02,15,11.90
2019,05,27,02,16,11.80
2019,05,27,02,17,11.80
2019,05,27,02,18,11.80
2019,05,27,02,19,11.80
2019,05,27,02,20,11.80
2019,05,27,02,21,11.80
2019,05,27,02,22,11.80
2019,05,27,02,23,11.80
2019,05,27,02,24,11.80
2019,05,27,02,25,11.80
2019,05,27,02,26,11.70
2019,05,27,02,27,11.70
2019,05,27,02,28,11.70
2019,05,27,02,29,11.70
2019,05,27,02,30,11.70
2019,05,27,02,31,11.70
2019,05,27,02,32,11.70
2019,05,27,02,33,11.70
2019,05,27,02,34,11.70
2019,05,27,02,35,11.70
2019,05,27,02,36,11.70
2019,05,27,02,37,11.70
2019,05,27,02,38,11.70
2019,05,27,02,39,11.70
2019,05,27,02,40,11.70
2019,05,27,02,41,11.70
2019,05,27,02,42,11.70
2019,05,27,02,43,11.70
2019,05,27,02,44,11.70
2019,05,27,02,45,11.70
2019,05,27,02,46,11.70
2019,05,27,02,47,11.70
2019,05,27,02,48,11.70
2019,05,27,02,49,11.70
2019,05,27,02,50,11.70
2019,05,27,02,51,11.70
2019,05,27,02,52,11.70
2019,05,27,02,53,11.70
2019,05,27,02,54,11.70
2019,05,27,02,55,11.70
2019,05,27,02,56,11.70
2019,05,27,02,57,11.70
2019,05,27,02,58,11.60
2019,05,27,02,59,11.60
2019,05,27,03,00,11.60
2019,05,27,03,01,11.60
2019,05,27,03,02,11.60
2019,05,27,03,03,11.60
2019,05,27,03,04,11.50
2019,05,27,03,05,11.50
2019,05,27,03,06,11.50
2019,05,27,03,07,11.50
2019,05,27,03,08,11.40
2019,05,27,03,09,11.40
2019,05,27,03,10,11.40
2019,05,27,03,11,11.40
2019,05,27,03,12,11.40
2019,05,27,03,13,11.40
2019,05,27,03,14,11.40
2019,05,27,03,15,11.40
2019,05,27,03,16,11.40
2019,05,27,03,17,11.40
2019,05,27,03,18,11.30
2019,05,27,03,19,11.30
2019,05,27,03,20,11.30
2019,05,27,03,21,11.30
2019,05,27,03,22,11.30
2019,05,27,03,23,11.30
2019,05,27,03,24,11.30
2019,05,27,03,25,11.30
2019,05,27,03,26,11.30
2019,05,27,03,27,11.20
2019,05,27,03,28,11.20
2019,05,27,03,29,11.20
2019,05,27,03,30,11.20
2019,05,27,03,31,11.20
2019,05,27,03,32,11.20
2019,05,27,03,33,11.20
2019,05,27,03,34,11.20
2019,05,27,03,35,11.20
2019,05,27,03,36,11.20
2019,05,27,03,37,11.20
2019,05,27,03,38,11.20
2019,05,27,03,39,11.20
2019,05,27,03,40,11.20
2019,05,27,03,41,11.20
2019,05,27,03,42,11.20
2019,05,27,03,43,11.20
2019,05,27,03,44,11.20
2019,05,27,03,45,11.20
2019,05,27,03,46,11.20
2019,05,27,03,47,11.10
2019,05,27,03,48,11.10
2019,05,27,03,49,11.10
2019,05,27,03,50,11.10
2019,05,27,03,51,11.10
2019,05,27,03,52,11.00
2019,05,27,03,53,11.00
2019,05,27,03,54,11.00
2019,05,27,03,55,10.90
2019,05,27,03,56,10.90
2019,05,27,03,57,10.90
2019,05,27,03,58,10.80
2019,05,27,03,59,10.80
2019,05,27,04,00,10.80
2019,05,27,04,01,10.80
2019,05,27,04,02,10.80
2019,05,27,04,03,10.80
2019,05,27,04,04,10.80
2019,05,27,04,05,10.80
2019,05,27,04,06,10.80
2019,05,27,04,07,10.80
2019,05,27,04,08,10.80
2019,05,27,04,09,10.80
2019,05,27,04,10,10.80
2019,05,27,04,11,10.80
2019,05,27,04,12,10.80
2019,05,27,04,13,10.80
2019,05,27,04,14,10.80
2019,05,27,04,15,10.80
2019,05,27,04,16,10.70
2019,05,27,04,17,10.80
2019,05,27,04,18,10.70
2019,05,27,04,19,10.70
2019,05,27,04,20,10.70
2019,05,27,04,21,10.70
2019,05,27,04,22,10.70
2019,05,27,04,23,10.70
2019,05,27,04,24,10.70
2019,05,27,04,25,10.70
2019,05,27,04,26,10.70
2019,05,27,04,27,10.70
2019,05,27,04,28,10.70
2019,05,27,04,29,10.70
2019,05,27,04,30,10.70
2019,05,27,04,31,10.70
2019,05,27,04,32,10.70
2019,05,27,04,33,10.70
2019,05,27,04,34,10.70
2019,05,27,04,35,10.70
2019,05,27,04,36,10.70
2019,05,27,04,37,10.70
2019,05,27,04,38,10.70
2019,05,27,04,39,10.70
2019,05,27,04,40,10.70
2019,05,27,04,41,10.70
2019,05,27,04,42,10.70
2019,05,27,04,43,10.70
2019,05,27,04,44,10.70
2019,05,27,04,45,10.60
2019,05,27,04,46,10.60
2019,05,27,04,47,10.60
2019,05,27,04,48,10.60
2019,05,27,04,49,10.60
2019,05,27,04,50,10.60
2019,05,27,04,51,10.60
2019,05,27,04,52,10.60
2019,05,27,04,53,10.60
2019,05,27,04,54,10.60
2019,05,27,04,55,10.60
2019,05,27,04,56,10.60
2019,05,27,04,57,10.60
2019,05,27,04,58,10.60
2019,05,27,04,59,10.60
2019,05,27,05,00,10.60
2019,05,27,05,01,10.60
2019,05,27,05,02,10.60
2019,05,27,05,03,10.60
2019,05,27,05,04,10.60
2019,05,27,05,05,10.60
2019,05,27,05,06,10.60
2019,05,27,05,07,10.60
2019,05,27,05,08,10.60
2019,05,27,05,09,10.60
2019,05,27,05,10,10.60
2019,05,27,05,11,10.60
2019,05,27,05,12,10.70
2019,05,27,05,13,10.70
2019,05,27,05,14,10.70
2019,05,27,05,15,10.70
2019,05,27,05,16,10.80
2019,05,27,05,17,10.80
2019,05,27,05,18,10.80
2019,05,27,05,19,10.80
2019,05,27,05,20,10.80
2019,05,27,05,21,10.80
2019,05,27,05,22,10.80
2019,05,27,05,23,10.80
2019,05,27,05,24,10.80
2019,05,27,05,25,10.90
2019,05,27,05,26,10.90
2019,05,27,05,27,10.90
2019,05,27,05,28,10.90
2019,05,27,05,29,10.90
2019,05,27,05,30,10.90
2019,05,27,05,31,11.00
2019,05,27,05,32,11.00
2019,05,27,05,33,11.00
2019,05,27,05,34,11.00
2019,05,27,05,35,11.10
2019,05,27,05,36,11.10
2019,05,27,05,37,11.10
2019,05,27,05,38,11.10
2019,05,27,05,39,11.10
2019,05,27,05,40,11.10
2019,05,27,05,41,11.10
2019,05,27,05,42,11.10
2019,05,27,05,43,11.10
2019,05,27,05,44,11.10
2019,05,27,05,45,11.10
2019,05,27,05,46,11.10
2019,05,27,05,47,11.10
2019,05,27,05,48,11.10
2019,05,27,05,49,11.10
2019,05,27,05,50,11.10
2019,05,27,05,51,11.10
2019,05,27,05,52,11.20
2019,05,27,05,53,11.10
2019,05,27,05,54,11.20
2019,05,27,05,55,11.20
2019,05,27,05,56,11.20
2019,05,27,05,57,11.20
2019,05,27,05,58,11.20
2019,05,27,05,59,11.20
2019,05,27,06,00,11.20
2019,05,27,06,01,11.30
2019,05,27,06,02,11.30
2019,05,27,06,03,11.30
2019,05,27,06,04,11.30
2019,05,27,06,05,11.30
2019,05,27,06,06,11.30
2019,05,27,06,07,11.30
2019,05,27,06,08,11.30
2019,05,27,06,09,11.40
2019,05,27,06,10,11.40
2019,05,27,06,11,11.40
2019,05,27,06,12,11.40
2019,05,27,06,13,11.40
2019,05,27,06,14,11.40
2019,05,27,06,15,11.40
2019,05,27,06,16,11.40
2019,05,27,06,17,11.40
2019,05,27,06,18,11.50
2019,05,27,06,19,11.50
2019,05,27,06,20,11.50
2019,05,27,06,21,11.60
2019,05,27,06,22,11.60
2019,05,27,06,23,11.70
2019,05,27,06,24,11.70
2019,05,27,06,25,11.70
2019,05,27,06,26,11.80
2019,05,27,06,27,11.90
2019,05,27,06,28,12.00
2019,05,27,06,29,12.10
2019,05,27,06,30,12.10
2019,05,27,06,31,12.10
2019,05,27,06,32,12.20
2019,05,27,06,33,12.20
2019,05,27,06,34,12.20
2019,05,27,06,35,12.30
2019,05,27,06,36,12.30
2019,05,27,06,37,12.40
2019,05,27,06,38,12.40
2019,05,27,06,39,12.50
2019,05,27,06,40,12.50
2019,05,27,06,41,12.50
2019,05,27,06,42,12.50
2019,05,27,06,43,12.50
2019,05,27,06,44,12.50
2019,05,27,06,45,12.60
2019,05,27,06,46,12.60
2019,05,27,06,47,12.60
2019,05,27,06,48,12.60
2019,05,27,06,49,12.70
2019,05,27,06,50,12.70
2019,05,27,06,51,12.70
2019,05,27,06,52,12.80
2019,05,27,06,53,13.00
2019,05,27,06,54,13.10
2019,05,27,06,55,13.20
2019,05,27,06,56,13.30
2019,05,27,06,57,13.40
2019,05,27,06,58,13.50
2019,05,27,06,59,13.60
2019,05,27,07,00,13.70
2019,05,27,07,01,13.80
2019,05,27,07,02,13.80
2019,05,27,07,03,13.80
2019,05,27,07,04,13.80
2019,05,27,07,05,13.80
2019,05,27,07,06,13.80
2019,05,27,07,07,13.80
2019,05,27,07,08,13.80
2019,05,27,07,09,13.80
2019,05,27,07,10,13.90
2019,05,27,07,11,13.90
2019,05,27,07,12,14.00
2019,05,27,07,13,14.00
2019,05,27,07,14,14.00
2019,05,27,07,15,14.10
2019,05,27,07,16,14.10
2019,05,27,07,17,14.10
2019,05,27,07,18,14.10
2019,05,27,07,19,14.00
2019,05,27,07,20,13.90
2019,05,27,07,21,14.00
2019,05,27,07,22,14.00
2019,05,27,07,23,14.10
2019,05,27,07,24,14.10
2019,05,27,07,25,14.10
2019,05,27,07,26,14.10
2019,05,27,07,27,14.10
2019,05,27,07,28,14.10
2019,05,27,07,29,14.10
2019,05,27,07,30,14.10
2019,05,27,07,31,14.10
2019,05,27,07,32,14.10
2019,05,27,07,33,14.10
2019,05,27,07,34,14.10
2019,05,27,07,35,14.10
2019,05,27,07,36,14.10
2019,05,27,07,37,14.20
2019,05,27,07,38,14.20
2019,05,27,07,39,14.30
2019,05,27,07,40,14.30
2019,05,27,07,41,14.40
2019,05,27,07,42,14.60
2019,05,27,07,43,14.70
2019,05,27,07,44,14.80
2019,05,27,07,45,14.90
2019,05,27,07,46,15.00
2019,05,27,07,47,15.10
2019,05,27,07,48,15.20
2019,05,27,07,49,15.20
2019,05,27,07,50,15.30
2019,05,27,07,51,15.30
2019,05,27,07,52,15.40
2019,05,27,07,53,15.40
2019,05,27,07,54,15.40
2019,05,27,07,55,15.40
2019,05,27,07,56,15.40
2019,05,27,07,57,15.40
2019,05,27,07,58,15.30
2019,05,27,07,59,15.30
2019,05,27,08,00,15.20
2019,05,27,08,01,15.30
2019,05,27,08,02,15.30
2019,05,27,08,03,15.30
2019,05,27,08,04,15.40
2019,05,27,08,05,15.50
2019,05,27,08,06,15.60
2019,05,27,08,07,15.70
2019,05,27,08,08,15.80
2019,05,27,08,09,15.90
2019,05,27,08,10,16.00
2019,05,27,08,11,16.10
2019,05,27,08,12,16.10
2019,05,27,08,13,16.20
2019,05,27,08,14,16.20
2019,05,27,08,15,16.10
2019,05,27,08,16,16.10
2019,05,27,08,17,16.00
2019,05,27,08,18,16.00
2019,05,27,08,19,15.90
2019,05,27,08,20,15.90
2019,05,27,08,21,15.90
2019,05,27,08,22,15.90
2019,05,27,08,23,15.90
2019,05,27,08,24,15.80
2019,05,27,08,25,15.80
2019,05,27,08,26,15.80
2019,05,27,08,27,15.80
2019,05,27,08,28,15.90
2019,05,27,08,29,15.90
2019,05,27,08,30,15.90
2019,05,27,08,31,15.90
2019,05,27,08,32,15.80
2019,05,27,08,33,15.80
2019,05,27,08,34,15.70
2019,05,27,08,35,15.60
2019,05,27,08,36,15.50
2019,05,27,08,37,15.40
2019,05,27,08,38,15.30
2019,05,27,08,39,15.20
2019,05,27,08,40,15.20
2019,05,27,08,41,15.20
2019,05,27,08,42,15.20
2019,05,27,08,43,15.20
2019,05,27,08,44,15.20
2019,05,27,08,45,15.30
2019,05,27,08,46,15.30
2019,05,27,08,47,15.30
2019,05,27,08,48,15.20
2019,05,27,08,49,15.20
2019,05,27,08,50,15.20
2019,05,27,08,51,15.20
2019,05,27,08,52,15.20
2019,05,27,08,53,15.20
2019,05,27,08,54,15.20
2019,05,27,08,55,15.20
2019,05,27,08,56,15.20
2019,05,27,08,57,15.20
2019,05,27,08,58,15.30
2019,05,27,08,59,15.40
2019,05,27,09,00,15.40
2019,05,27,09,01,15.40
2019,05,27,09,02,15.40
2019,05,27,09,03,15.50
2019,05,27,09,04,15.50
2019,05,27,09,05,15.60
2019,05,27,09,06,15.60
2019,05,27,09,07,15.60
2019,05,27,09,08,15.60
2019,05,27,09,09,15.50
2019,05,27,09,10,15.50
2019,05,27,09,11,15.40
2019,05,27,09,12,15.30
2019,05,27,09,13,15.20
2019,05,27,09,14,15.20
2019,05,27,09,15,15.20
2019,05,27,09,16,15.20
2019,05,27,09,17,15.10
2019,05,27,09,18,15.10
2019,05,27,09,19,15.10
2019,05,27,09,20,15.10
2019,05,27,09,21,15.10
2019,05,27,09,22,15.00
2019,05,27,09,23,14.90
2019,05,27,09,24,14.90
2019,05,27,09,25,14.90
2019,05,27,09,26,15.00
2019,05,27,09,27,15.10
2019,05,27,09,28,15.20
2019,05,27,09,29,15.30
2019,05,27,09,30,15.30
2019,05,27,09,31,15.30
2019,05,27,09,32,15.20
2019,05,27,09,33,15.10
2019,05,27,09,34,15.00
2019,05,27,09,35,14.90
2019,05,27,09,36,14.90
2019,05,27,09,37,14.90
2019,05,27,09,38,14.90
2019,05,27,09,39,14.90
2019,05,27,09,40,14.90
2019,05,27,09,41,14.80
2019,05,27,09,42,14.70
2019,05,27,09,43,14.70
2019,05,27,09,44,14.70
2019,05,27,09,45,14.60
2019,05,27,09,46,14.60
2019,05,27,09,47,14.70
2019,05,27,09,48,14.70
2019,05,27,09,49,14.80
2019,05,27,09,50,14.80
2019,05,27,09,51,14.80
2019,05,27,09,52,14.90
2019,05,27,09,53,15.00
2019,05,27,09,54,15.00
2019,05,27,09,55,15.00
2019,05,27,09,56,15.00
2019,05,27,09,57,15.00
2019,05,27,09,58,15.00
2019,05,27,09,59,15.00
2019,05,27,10,00,14.90
2019,05,27,10,01,14.90
2019,05,27,10,02,14.90
2019,05,27,10,03,14.90
2019,05,27,10,04,14.90
2019,05,27,10,05,14.90
2019,05,27,10,06,14.80
2019,05,27,10,07,14.80
2019,05,27,10,08,14.80
2019,05,27,10,09,14.70
2019,05,27,10,10,14.70
2019,05,27,10,11,14.60
2019,05,27,10,12,14.60
2019,05,27,10,13,14.60
2019,05,27,10,14,14.60
2019,05,27,10,15,14.80
2019,05,27,10,16,14.90
2019,05,27,10,17,15.10
2019,05,27,10,18,15.10
2019,05,27,10,19,15.10
2019,05,27,10,20,15.10
2019,05,27,10,21,15.20
2019,05,27,10,22,15.30
2019,05,27,10,23,15.30
2019,05,27,10,24,15.20
2019,05,27,10,25,15.30
2019,05,27,10,26,15.20
2019,05,27,10,27,15.20
2019,05,27,10,28,15.30
2019,05,27,10,29,15.30
2019,05,27,10,30,15.30
2019,05,27,10,31,15.30
2019,05,27,10,32,15.20
2019,05,27,10,33,15.20
2019,05,27,10,34,15.10
2019,05,27,10,35,15.10
2019,05,27,10,36,15.10
2019,05,27,10,37,15.10
2019,05,27,10,38,15.10
2019,05,27,10,39,15.10
2019,05,27,10,40,15.20
2019,05,27,10,41,15.20
2019,05,27,10,42,15.30
2019,05,27,10,43,15.40
2019,05,27,10,44,15.40
2019,05,27,10,45,15.50
2019,05,27,10,46,15.60
2019,05,27,10,47,15.60
2019,05,27,10,48,15.50
2019,05,27,10,49,15.50
2019,05,27,10,50,15.40
2019,05,27,10,51,15.40
2019,05,27,10,52,15.30
2019,05,27,10,53,15.20
2019,05,27,10,54,15.10
2019,05,27,10,55,15.10
2019,05,27,10,56,15.10
2019,05,27,10,57,15.10
2019,05,27,10,58,15.10
2019,05,27,10,59,15.10
2019,05,27,11,00,15.00
2019,05,27,11,01,15.00
2019,05,27,11,02,15.00
2019,05,27,11,03,15.10
2019,05,27,11,04,15.10
2019,05,27,11,05,15.10
2019,05,27,11,06,15.10
2019,05,27,11,07,15.20
2019,05,27,11,08,15.30
2019,05,27,11,09,15.50
2019,05,27,11,10,15.60
2019,05,27,11,11,15.60
2019,05,27,11,12,15.50
2019,05,27,11,13,15.40
2019,05,27,11,14,15.40
2019,05,27,11,15,15.30
2019,05,27,11,16,15.40
2019,05,27,11,17,15.50
2019,05,27,11,18,15.50
2019,05,27,11,19,15.60
2019,05,27,11,20,15.70
2019,05,27,11,21,15.80
2019,05,27,11,22,15.90
2019,05,27,11,23,16.10
2019,05,27,11,24,16.20
2019,05,27,11,25,16.30
2019,05,27,11,26,16.20
2019,05,27,11,27,16.20
2019,05,27,11,28,16.30
2019,05,27,11,29,16.30
2019,05,27,11,30,16.30
2019,05,27,11,31,16.30
2019,05,27,11,32,16.30
2019,05,27,11,33,16.30
2019,05,27,11,34,16.30
2019,05,27,11,35,16.30
2019,05,27,11,36,16.30
2019,05,27,11,37,16.40
2019,05,27,11,38,16.40
2019,05,27,11,39,16.40
2019,05,27,11,40,16.40
2019,05,27,11,41,16.40
2019,05,27,11,42,16.50
2019,05,27,11,43,16.60
2019,05,27,11,44,16.60
2019,05,27,11,45,16.80
2019,05,27,11,46,16.80
2019,05,27,11,47,16.80
2019,05,27,11,48,16.90
2019,05,27,11,49,17.00
2019,05,27,11,50,17.10
2019,05,27,11,51,17.30
2019,05,27,11,52,17.40
2019,05,27,11,53,17.40
2019,05,27,11,54,17.40
2019,05,27,11,55,17.40
2019,05,27,11,56,17.40
2019,05,27,11,57,17.40
2019,05,27,11,58,17.30
2019,05,27,11,59,17.20
2019,05,27,12,00,17.20
2019,05,27,12,01,17.10
2019,05,27,12,02,16.80
2019,05,27,12,03,16.70
2019,05,27,12,04,16.60
2019,05,27,12,05,16.40
2019,05,27,12,06,16.30
2019,05,27,12,07,16.30
2019,05,27,12,08,16.10
2019,05,27,12,09,16.10
2019,05,27,12,10,15.90
2019,05,27,12,11,15.80
2019,05,27,12,12,15.70
2019,05,27,12,13,15.60
2019,05,27,12,14,15.50
2019,05,27,12,15,15.50
2019,05,27,12,16,15.50
2019,05,27,12,17,15.50
2019,05,27,12,18,15.40
2019,05,27,12,19,15.30
2019,05,27,12,20,15.30
2019,05,27,12,21,15.40
2019,05,27,12,22,15.50
2019,05,27,12,23,15.60
2019,05,27,12,24,15.70
2019,05,27,12,25,15.80
2019,05,27,12,26,15.80
2019,05,27,12,27,15.80
2019,05,27,12,28,15.80
2019,05,27,12,29,15.70
2019,05,27,12,30,15.70
2019,05,27,12,31,15.70
2019,05,27,12,32,15.70
2019,05,27,12,33,15.80
2019,05,27,12,34,15.90
2019,05,27,12,35,16.00
2019,05,27,12,36,16.00
2019,05,27,12,37,16.00
2019,05,27,12,38,16.00
2019,05,27,12,39,16.00
2019,05,27,12,40,15.90
2019,05,27,12,41,15.80
2019,05,27,12,42,15.80
2019,05,27,12,43,15.80
2019,05,27,12,44,15.80
2019,05,27,12,45,15.80
2019,05,27,12,46,15.90
2019,05,27,12,47,15.90
2019,05,27,12,48,15.90
2019,05,27,12,49,15.90
2019,05,27,12,50,15.80
2019,05,27,12,51,15.80
2019,05,27,12,52,15.70
2019,05,27,12,53,15.60
2019,05,27,12,54,15.50
2019,05,27,12,55,15.20
2019,05,27,12,56,15.10
2019,05,27,12,57,14.90
2019,05,27,12,58,15.00
2019,05,27,12,59,15.00
2019,05,27,13,00,15.10
2019,05,27,13,01,15.10
2019,05,27,13,02,15.10
2019,05,27,13,03,15.20
2019,05,27,13,04,15.30
2019,05,27,13,05,15.30
2019,05,27,13,06,15.30
2019,05,27,13,07,15.40
2019,05,27,13,08,15.40
2019,05,27,13,09,15.40
2019,05,27,13,10,15.40
2019,05,27,13,11,15.50
2019,05,27,13,12,15.50
2019,05,27,13,13,15.50
2019,05,27,13,14,15.40
2019,05,27,13,15,15.40
2019,05,27,13,16,15.30
2019,05,27,13,17,15.20
2019,05,27,13,18,15.20
2019,05,27,13,19,15.20
2019,05,27,13,20,15.20
2019,05,27,13,21,15.30
2019,05,27,13,22,15.30
2019,05,27,13,23,15.30
2019,05,27,13,24,15.40
2019,05,27,13,25,15.40
2019,05,27,13,26,15.30
2019,05,27,13,27,15.30
2019,05,27,13,28,15.30
2019,05,27,13,29,15.20
2019,05,27,13,30,15.10
2019,05,27,13,31,15.20
2019,05,27,13,32,15.20
2019,05,27,13,33,15.30
2019,05,27,13,34,15.40
2019,05,27,13,35,15.40
2019,05,27,13,36,15.40
2019,05,27,13,37,15.30
2019,05,27,13,38,15.40
2019,05,27,13,39,15.40
2019,05,27,13,40,15.50
2019,05,27,13,41,15.60
2019,05,27,13,42,15.60
2019,05,27,13,43,15.70
2019,05,27,13,44,15.70
2019,05,27,13,45,15.80
2019,05,27,13,46,15.90
2019,05,27,13,47,15.90
2019,05,27,13,48,16.10
2019,05,27,13,49,16.10
2019,05,27,13,50,16.20
2019,05,27,13,51,16.40
2019,05,27,13,52,16.50
2019,05,27,13,53,16.70
2019,05,27,13,54,16.90
2019,05,27,13,55,17.10
2019,05,27,13,56,17.30
2019,05,27,13,57,17.40
2019,05,27,13,58,17.60
2019,05,27,13,59,17.80
2019,05,27,14,00,18.00
2019,05,27,14,01,18.20
2019,05,27,14,02,18.30
2019,05,27,14,03,18.40
2019,05,27,14,04,18.40
2019,05,27,14,05,18.50
2019,05,27,14,06,18.50
2019,05,27,14,07,18.60
2019,05,27,14,08,18.80
2019,05,27,14,09,18.90
2019,05,27,14,10,19.10
2019,05,27,14,11,19.20
2019,05,27,14,12,19.20
2019,05,27,14,13,19.30
2019,05,27,14,14,19.30
2019,05,27,14,15,19.30
2019,05,27,14,16,19.30
2019,05,27,14,17,19.30
2019,05,27,14,18,19.30
2019,05,27,14,19,19.20
2019,05,27,14,20,19.10
2019,05,27,14,21,19.10
2019,05,27,14,22,19.10
2019,05,27,14,23,19.10
2019,05,27,14,24,19.10
2019,05,27,14,25,19.10
2019,05,27,14,26,19.00
2019,05,27,14,27,19.00
2019,05,27,14,28,19.10
2019,05,27,14,29,19.10
2019,05,27,14,30,19.20
2019,05,27,14,31,19.20
2019,05,27,14,32,19.20
2019,05,27,14,33,19.20
2019,05,27,14,34,19.20
2019,05,27,14,35,19.20
2019,05,27,14,36,19.30
2019,05,27,14,37,19.40
2019,05,27,14,38,19.50
2019,05,27,14,39,19.60
2019,05,27,14,40,19.80
2019,05,27,14,41,19.90
2019,05,27,14,42,20.10
2019,05,27,14,43,20.20
2019,05,27,14,44,20.30
2019,05,27,14,45,20.40
2019,05,27,14,46,20.40
2019,05,27,14,47,20.40
2019,05,27,14,48,20.50
2019,05,27,14,49,20.60
2019,05,27,14,50,20.70
2019,05,27,14,51,20.80
2019,05,27,14,52,20.80
2019,05,27,14,53,20.80
2019,05,27,14,54,20.90
2019,05,27,14,55,20.90
2019,05,27,14,56,20.90
2019,05,27,14,57,20.90
2019,05,27,14,58,20.90
2019,05,27,14,59,20.90
2019,05,27,15,00,20.90
2019,05,27,15,01,20.90
2019,05,27,15,02,20.90
2019,05,27,15,03,21.00
2019,05,27,15,04,21.00
2019,05,27,15,05,21.00
2019,05,27,15,06,21.00
2019,05,27,15,07,21.10
2019,05,27,15,08,21.10
2019,05,27,15,09,21.10
2019,05,27,15,10,21.10
2019,05,27,15,11,21.10
2019,05,27,15,12,21.10
2019,05,27,15,13,21.10
2019,05,27,15,14,21.20
2019,05,27,15,15,21.30
2019,05,27,15,16,21.40
2019,05,27,15,17,21.50
2019,05,27,15,18,21.50
2019,05,27,15,19,21.60
2019,05,27,15,20,21.80
2019,05,27,15,21,22.00
2019,05,27,15,22,22.10
2019,05,27,15,23,22.30
2019,05,27,15,24,22.50
2019,05,27,15,25,22.70
2019,05,27,15,26,22.90
2019,05,27,15,27,23.10
2019,05,27,15,28,23.30
2019,05,27,15,29,23.50
2019,05,27,15,30,23.70
2019,05,27,15,31,23.90
2019,05,27,15,32,24.00
2019,05,27,15,33,24.10
2019,05,27,15,34,24.20
2019,05,27,15,35,24.30
2019,05,27,15,36,24.40
2019,05,27,15,37,24.30
2019,05,27,15,38,24.20
2019,05,27,15,39,24.00
2019,05,27,15,40,24.00
2019,05,27,15,41,24.00
2019,05,27,15,42,24.10
2019,05,27,15,43,24.10
2019,05,27,15,44,24.10
2019,05,27,15,45,24.20
2019,05,27,15,46,24.20
2019,05,27,15,47,24.20
2019,05,27,15,48,24.10
2019,05,27,15,49,24.10
2019,05,27,15,50,24.00
2019,05,27,15,51,23.90
2019,05,27,15,52,23.90
2019,05,27,15,53,23.90
2019,05,27,15,54,23.90
2019,05,27,15,55,23.80
2019,05,27,15,56,23.80
2019,05,27,15,57,23.80
2019,05,27,15,58,23.80
2019,05,27,15,59,23.90
2019,05,27,16,00,24.00
2019,05,27,16,01,23.90
2019,05,27,16,02,23.90
2019,05,27,16,03,23.80
2019,05,27,16,04,23.80
2019,05,27,16,05,23.80
2019,05,27,16,06,23.80
2019,05,27,16,07,23.70
2019,05,27,16,08,23.70
2019,05,27,16,09,23.60
2019,05,27,16,10,23.50
2019,05,27,16,11,23.40
2019,05,27,16,12,23.30
2019,05,27,16,13,23.30
2019,05,27,16,14,23.30
2019,05,27,16,15,23.40
2019,05,27,16,16,23.40
2019,05,27,16,17,23.40
2019,05,27,16,18,23.50
2019,05,27,16,19,23.60
2019,05,27,16,20,23.70
2019,05,27,16,21,23.70
2019,05,27,16,22,23.60
2019,05,27,16,23,23.60
2019,05,27,16,24,23.50
2019,05,27,16,25,23.50
2019,05,27,16,26,23.60
2019,05,27,16,27,23.70
2019,05,27,16,28,23.80
2019,05,27,16,29,23.80
2019,05,27,16,30,23.90
2019,05,27,16,31,23.80
2019,05,27,16,32,23.70
2019,05,27,16,33,23.60
2019,05,27,16,34,23.50
2019,05,27,16,35,23.50
2019,05,27,16,36,23.50
2019,05,27,16,37,23.60
2019,05,27,16,38,23.60
2019,05,27,16,39,23.70
2019,05,27,16,40,23.70
2019,05,27,16,41,23.70
2019,05,27,16,42,23.70
2019,05,27,16,43,23.70
2019,05,27,16,44,23.60
2019,05,27,16,45,23.50
2019,05,27,16,46,23.40
2019,05,27,16,47,23.40
2019,05,27,16,48,23.40
2019,05,27,16,49,23.40
2019,05,27,16,50,23.40
2019,05,27,16,51,23.40
2019,05,27,16,52,23.30
2019,05,27,16,53,23.10
2019,05,27,16,54,23.10
2019,05,27,16,55,23.00
2019,05,27,16,56,22.90
2019,05,27,16,57,23.00
2019,05,27,16,58,23.00
2019,05,27,16,59,23.00
2019,05,27,17,00,23.00
2019,05,27,17,01,22.90
2019,05,27,17,02,22.80
2019,05,27,17,03,22.70
2019,05,27,17,04,22.70
2019,05,27,17,05,22.70
2019,05,27,17,06,22.60
2019,05,27,17,07,22.70
2019,05,27,17,08,22.70
2019,05,27,17,09,22.80
2019,05,27,17,10,22.90
2019,05,27,17,11,23.10
2019,05,27,17,12,23.10
2019,05,27,17,13,23.10
2019,05,27,17,14,23.10
2019,05,27,17,15,23.20
2019,05,27,17,16,23.30
2019,05,27,17,17,23.30
2019,05,27,17,18,23.40
2019,05,27,17,19,23.30